TimeCDT,TemperatureF,Dew PointF,Humidity,Sea Level PressureIn,VisibilityMPH,Wind Direction,Wind SpeedMPH,Gust SpeedMPH,PrecipitationIn,Events,Conditions,WindDirDegrees,DateUTC
12:14 AM,59.0,53.6,82,29.92,10.0,WNW,4.6,-,N/A,,Clear,300,2013-07-25 05:14:00
12:35 AM,57.2,53.6,88,29.93,10.0,NW,4.6,-,N/A,,Clear,310,2013-07-25 05:35:00
12:54 AM,57.2,51.8,82,29.92,7.0,NW,3.5,-,N/A,,Clear,320,2013-07-25 05:54:00
1:14 AM,55.4,51.8,88,29.93,4.0,Calm,Calm,-,N/A,,Haze,0,2013-07-25 06:14:00
1:35 AM,57.2,51.8,82,29.92,5.0,Calm,Calm,-,N/A,,Haze,0,2013-07-25 06:35:00
1:54 AM,57.2,51.8,82,29.92,10.0,Calm,Calm,-,N/A,,Clear,0,2013-07-25 06:54:00
2:14 AM,57.2,51.8,82,29.92,10.0,Calm,Calm,-,N/A,,Clear,0,2013-07-25 07:14:00
2:35 AM,55.4,51.8,88,29.92,10.0,Calm,Calm,-,N/A,,Clear,0,2013-07-25 07:35:00
2:54 AM,55.4,50.0,82,29.92,10.0,Calm,Calm,-,N/A,,Clear,0,2013-07-25 07:54:00
3:14 AM,53.6,48.2,82,29.93,7.0,Calm,Calm,-,N/A,,Clear,0,2013-07-25 08:14:00
3:35 AM,53.6,48.2,82,29.92,10.0,Calm,Calm,-,N/A,,Mostly Cloudy,0,2013-07-25 08:35:00
3:54 AM,55.4,50.0,82,29.92,10.0,Calm,Calm,-,N/A,,Scattered Clouds,0,2013-07-25 08:54:00
4:14 AM,55.4,50.0,82,29.91,10.0,Calm,Calm,-,N/A,,Clear,0,2013-07-25 09:14:00
4:35 AM,53.6,48.2,82,29.91,0.2,Calm,Calm,-,N/A,,Haze,0,2013-07-25 09:35:00
4:54 AM,55.4,50.0,82,29.91,0.2,Calm,Calm,-,N/A,,Haze,0,2013-07-25 09:54:00
5:14 AM,55.4,50.0,82,29.92,0.5,Calm,Calm,-,N/A,,Haze,0,2013-07-25 10:14:00
5:34 AM,55.4,50.0,82,29.91,0.5,Calm,Calm,-,N/A,,Haze,0,2013-07-25 10:34:00
5:54 AM,55.4,50.0,82,29.91,0.2,Calm,Calm,-,N/A,,Haze,0,2013-07-25 10:54:00
6:15 AM,55.4,50.0,82,29.91,0.2,Calm,Calm,-,N/A,,Haze,0,2013-07-25 11:15:00
6:34 AM,55.4,50.0,82,29.91,0.2,Calm,Calm,-,N/A,,Haze,0,2013-07-25 11:34:00
6:54 AM,55.4,51.8,88,29.92,0.2,Calm,Calm,-,N/A,,Haze,0,2013-07-25 11:54:00
7:15 AM,57.2,51.8,82,29.92,0.2,Calm,Calm,-,N/A,,Haze,0,2013-07-25 12:15:00
7:34 AM,57.2,53.6,88,29.92,0.2,SW,3.5,-,N/A,,Haze,220,2013-07-25 12:34:00
7:54 AM,57.2,53.6,88,29.92,0.2,SSW,3.5,-,N/A,,Haze,210,2013-07-25 12:54:00
8:14 AM,57.2,53.6,88,29.92,0.8,South,4.6,-,N/A,,Haze,190,2013-07-25 13:14:00
8:34 AM,59.0,53.6,82,29.91,1.8,South,5.8,-,N/A,,Haze,180,2013-07-25 13:34:00
8:54 AM,60.8,53.6,77,29.90,4.0,South,6.9,-,N/A,,Haze,180,2013-07-25 13:54:00
9:14 AM,60.8,55.4,82,29.89,7.0,South,9.2,-,N/A,Thunderstorm,Overcast,180,2013-07-25 14:14:00
9:34 AM,60.8,55.4,82,29.89,10.0,South,6.9,-,N/A,Thunderstorm,Thunderstorm,190,2013-07-25 14:34:00
9:54 AM,60.8,55.4,82,29.88,10.0,South,8.1,-,N/A,Thunderstorm,Thunderstorm,180,2013-07-25 14:54:00
10:14 AM,59.0,53.6,82,29.91,0.8,WSW,9.2,23.0,0.38,Rain-Thunderstorm,Heavy Thunderstorms and Rain,240,2013-07-25 15:14:00
10:34 AM,55.4,51.8,88,29.90,10.0,SW,3.5,-,0.44,Rain-Thunderstorm,Thunderstorms and Rain,230,2013-07-25 15:34:00
10:54 AM,55.4,51.8,88,29.90,10.0,SSW,4.6,-,0.48,Rain-Thunderstorm,Light Thunderstorms and Rain,200,2013-07-25 15:54:00
11:14 AM,57.2,53.6,88,29.89,10.0,South,4.6,-,N/A,,Mostly Cloudy,180,2013-07-25 16:14:00
11:34 AM,60.8,55.4,82,29.89,10.0,SSW,4.6,-,N/A,,Scattered Clouds,210,2013-07-25 16:34:00
11:55 AM,62.6,57.2,82,29.88,10.0,WSW,5.8,-,N/A,,Scattered Clouds,250,2013-07-25 16:55:00
12:14 PM,64.4,57.2,77,29.88,10.0,SW,6.9,-,N/A,,Scattered Clouds,230,2013-07-25 17:14:00
12:34 PM,64.4,57.2,77,29.88,10.0,West,8.1,-,N/A,,Mostly Cloudy,280,2013-07-25 17:34:00
12:54 PM,68.0,62.6,83,29.88,10.0,WNW,8.1,-,N/A,,Scattered Clouds,300,2013-07-25 17:54:00
1:14 PM,69.8,60.8,73,29.87,10.0,WNW,6.9,-,N/A,,Scattered Clouds,300,2013-07-25 18:14:00
1:35 PM,69.8,60.8,73,29.87,10.0,WNW,8.1,-,N/A,,Scattered Clouds,290,2013-07-25 18:35:00
1:54 PM,71.6,60.8,69,29.86,10.0,WNW,9.2,-,N/A,Thunderstorm,Scattered Clouds,290,2013-07-25 18:54:00
2:14 PM,71.6,60.8,69,29.86,10.0,WNW,6.9,-,N/A,,Clear,290,2013-07-25 19:14:00
2:35 PM,73.4,60.8,65,29.85,10.0,WSW,8.1,16.1,N/A,,Clear,250,2013-07-25 19:35:00
2:54 PM,71.6,60.8,69,29.85,10.0,WNW,10.4,21.9,N/A,,Scattered Clouds,290,2013-07-25 19:54:00
3:14 PM,71.6,59.0,64,29.85,10.0,WNW,11.5,21.9,N/A,,Scattered Clouds,290,2013-07-25 20:14:00
3:35 PM,73.4,57.2,57,29.85,10.0,West,15.0,20.7,N/A,,Clear,280,2013-07-25 20:35:00
3:54 PM,71.6,57.2,60,29.85,10.0,West,11.5,18.4,N/A,,Scattered Clouds,270,2013-07-25 20:54:00
4:14 PM,73.4,57.2,57,29.85,10.0,WNW,13.8,18.4,N/A,,Scattered Clouds,300,2013-07-25 21:14:00
4:34 PM,71.6,57.2,60,29.86,10.0,West,10.4,18.4,N/A,,Clear,280,2013-07-25 21:34:00
4:54 PM,69.8,55.4,60,29.86,10.0,WNW,15.0,21.9,N/A,,Clear,300,2013-07-25 21:54:00
5:14 PM,66.2,57.2,73,29.87,10.0,WNW,11.5,17.3,N/A,,Clear,300,2013-07-25 22:14:00
5:34 PM,66.2,57.2,73,29.86,10.0,WNW,9.2,17.3,N/A,Thunderstorm,Clear,290,2013-07-25 22:34:00
5:54 PM,68.0,57.2,68,29.87,10.0,West,9.2,-,N/A,,Clear,280,2013-07-25 22:54:00
6:14 PM,68.0,57.2,68,29.86,10.0,WNW,8.1,-,N/A,,Clear,290,2013-07-25 23:14:00
6:34 PM,66.2,57.2,73,29.87,10.0,WNW,10.4,-,N/A,,Scattered Clouds,290,2013-07-25 23:34:00
6:54 PM,62.6,57.2,82,29.88,7.0,NNW,6.9,16.1,N/A,Rain,Light Rain,340,2013-07-25 23:54:00
7:14 PM,62.6,57.2,82,29.88,10.0,Calm,Calm,-,N/A,Rain,Light Rain,0,2013-07-26 00:14:00
7:34 PM,64.4,57.2,77,29.89,10.0,NNW,5.8,-,N/A,,Mostly Cloudy,340,2013-07-26 00:34:00
7:54 PM,62.6,57.2,82,29.89,10.0,North,9.2,-,N/A,,Mostly Cloudy,360,2013-07-26 00:54:00
8:14 PM,62.6,55.4,77,29.89,10.0,NNW,12.7,-,N/A,,Scattered Clouds,340,2013-07-26 01:14:00
8:35 PM,60.8,55.4,82,29.90,10.0,NNW,11.5,-,N/A,,Clear,340,2013-07-26 01:35:00
8:54 PM,60.8,55.4,82,29.90,10.0,NNW,9.2,-,N/A,,Mostly Cloudy,330,2013-07-26 01:54:00
9:14 PM,60.8,55.4,82,29.90,7.0,NNW,12.7,-,N/A,,Overcast,330,2013-07-26 02:14:00
9:35 PM,60.8,55.4,82,29.91,10.0,NNW,16.1,-,N/A,Thunderstorm,Thunderstorm,340,2013-07-26 02:35:00
9:54 PM,60.8,53.6,77,29.91,10.0,North,13.8,20.7,N/A,Rain,Light Rain,350,2013-07-26 02:54:00
10:14 PM,60.8,53.6,77,29.92,10.0,North,13.8,20.7,N/A,,Overcast,360,2013-07-26 03:14:00
10:35 PM,59.0,53.6,82,29.92,10.0,North,12.7,20.7,N/A,,Mostly Cloudy,10,2013-07-26 03:35:00
10:54 PM,59.0,53.6,82,29.93,7.0,NNE,15.0,23.0,N/A,Rain,Rain,20,2013-07-26 03:54:00
11:14 PM,57.2,51.8,82,29.93,7.0,NNE,16.1,24.2,0.03,Rain,Rain,20,2013-07-26 04:14:00
11:35 PM,57.2,51.8,82,29.94,10.0,NNE,17.3,25.3,0.05,Rain,Rain,20,2013-07-26 04:35:00
11:54 PM,57.2,51.8,82,29.95,10.0,NNE,15.0,26.5,0.05,Rain,Light Rain,20,2013-07-26 04:54:00